Change the Weather History Date:

Tuesday, August 20, 2013

  Actual Average (KEYE) Record (KEYE)
Temperature  
Mean Temperature 71 °F 74 °F  
Max Temperature 86 °F 83 °F 94 °F (2010)
Min Temperature 57 °F 65 °F 57 °F (1998)
Degree Days  
Heating Degree Days 0 0  
Month to date heating degree days 0  
Since 1 June heating degree days 15  
Since 1 July heating degree days 1  
Cooling Degree Days 6 9  
Month to date cooling degree days 192  
Year to date cooling degree days 828  
Since 1 June cooling degree days 744  
Growing Degree Days 21 (Base 50)    
Moisture  
Dew Point 59 °F    
Average Humidity 66    
Maximum Humidity 90    
Minimum Humidity 36    
Precipitation  
Precipitation 0.00 in 0.11 in 2.11 in (2007)
Month to date precipitation 1.94  
Year to date precipitation 27.40  
Sea Level Pressure  
Sea Level Pressure 30.14 in    
Wind  
Wind Speed 1 mph (SE)    
Max Wind Speed 9 mph    
Max Gust Speed -    
Visibility 8 miles    
Events      
T = Trace of Precipitation, MM = Missing Value Source: NWS Daily Summary

Daily Weather History Graph

Daily Weather History Graph

Search for Another Location

Airport or City:

Trip Planner

Search our weather history database for the weather conditions in past years. The results will help you decide how hot, cold, wet, or windy it might be!

Date:

Astronomy

Aug. 20, 2013 Rise Set
Actual Time 7:01 AM EDT 8:34 PM EDT
Civil Twilight 6:32 AM EDT 9:02 PM EDT
Nautical Twilight 5:58 AM EDT 9:37 PM EDT
Astronomical Twilight 5:21 AM EDT 10:13 PM EDT
Moon 8:05 PM EDT (8/20) 6:30 AM EDT (8/20)
Length of Visible Light 14h 29m
Length of Day
13h 32m
Full, 100% of the Moon is Illuminated
Aug 20
Full
Aug 20
Full
Aug 28
Last Quarter
Sep 5
New
Sep 12
First Quarter

Hourly Weather History & Observations

Time (EDT) Temp. Heat Index Dew Point Humidity Pressure Visibility Wind Dir Wind Speed Gust Speed Precip Events Conditions
12:15 AM 62.4 °F - 58.5 °F 87% 30.13 in 7.0 mi Calm Calm - N/A   Clear
12:35 AM 62.2 °F - 58.5 °F 87% 30.13 in 5.0 mi Calm Calm - N/A   Clear
12:55 AM 61.9 °F - 58.3 °F 88% 30.13 in 7.0 mi Calm Calm - N/A   Clear
1:15 AM 61.9 °F - 58.3 °F 88% 30.14 in 5.0 mi Calm Calm - N/A   Clear
1:35 AM 61.5 °F - 57.9 °F 88% 30.13 in 7.0 mi Calm Calm - N/A   Clear
1:55 AM 61.3 °F - 57.7 °F 88% 30.13 in 5.0 mi Calm Calm - N/A   Clear
2:15 AM 61.3 °F - 57.9 °F 89% 30.13 in 5.0 mi Calm Calm - N/A   Clear
2:35 AM 61.3 °F - 58.1 °F 89% 30.12 in 4.0 mi Calm Calm - N/A   Clear
2:55 AM 61.5 °F - 58.1 °F 89% 30.12 in 4.0 mi Calm Calm - N/A   Clear
3:15 AM 60.1 °F - 56.7 °F 88% 30.12 in 7.0 mi Calm Calm - N/A   Clear
3:35 AM 60.3 °F - 56.8 °F 88% 30.12 in 5.0 mi Calm Calm - N/A   Clear
3:55 AM 60.3 °F - 57.2 °F 90% 30.13 in 5.0 mi Calm Calm - N/A   Clear
4:15 AM 59.9 °F - 56.7 °F 89% 30.12 in 5.0 mi Calm Calm - N/A   Clear
4:35 AM 59.5 °F - 56.3 °F 89% 30.13 in 5.0 mi Calm Calm - N/A   Clear
4:55 AM 59.0 °F - 55.8 °F 89% 30.13 in 5.0 mi Calm Calm - N/A   Clear
5:15 AM 59.4 °F - 56.3 °F 90% 30.13 in 3.0 mi SE 3.5 mph - N/A   Clear
5:35 AM 59.2 °F - 56.1 °F 90% 30.13 in 5.0 mi Calm Calm - N/A   Clear
5:55 AM 58.5 °F - 55.4 °F 90% 30.13 in 5.0 mi Calm Calm - N/A   Clear
6:15 AM 58.5 °F - 55.4 °F 90% 30.13 in 5.0 mi Calm Calm - N/A   Clear
6:35 AM 58.5 °F - 55.2 °F 89% 30.13 in 4.0 mi Calm Calm - N/A   Clear
6:55 AM 57.9 °F - 54.5 °F 88% 30.14 in 7.0 mi Calm Calm - N/A   Clear
7:15 AM 57.7 °F - 54.5 °F 89% 30.15 in 5.0 mi Calm Calm - N/A   Clear
7:35 AM 58.6 °F - 55.6 °F 90% 30.15 in 3.0 mi Calm Calm - N/A   Clear
7:55 AM 59.9 °F - 56.7 °F 89% 30.16 in 4.0 mi Calm Calm - N/A   Clear
8:15 AM 61.5 °F - 58.3 °F 89% 30.16 in 3.0 mi Calm Calm - N/A   Clear
8:35 AM 64.6 °F - 61.3 °F 89% 30.16 in 4.0 mi Calm Calm - N/A   Clear
8:55 AM 67.5 °F - 63.5 °F 87% 30.16 in 5.0 mi Calm Calm - N/A   Clear
9:15 AM 70.7 °F - 64.9 °F 82% 30.17 in 7.0 mi Calm Calm - N/A   Clear
9:35 AM 73.2 °F - 65.1 °F 76% 30.18 in 7.0 mi Calm Calm - N/A   Clear
9:55 AM 75.2 °F - 63.9 °F 68% 30.18 in 10.0 mi Calm Calm - N/A   Clear
10:15 AM 76.6 °F - 63.1 °F 63% 30.18 in 10.0 mi South 3.5 mph - N/A   Clear
10:35 AM 78.1 °F - 62.8 °F 59% 30.18 in 10.0 mi Calm Calm - N/A   Clear
10:55 AM 79.7 °F - 60.1 °F 51% 30.19 in 10.0 mi SSE 3.5 mph - N/A   Clear
11:15 AM 79.7 °F - 59.0 °F 49% 30.19 in 10.0 mi Calm Calm - N/A   Clear
11:35 AM 80.6 °F 81.4 °F 60.3 °F 50% 30.19 in 10.0 mi Calm Calm - N/A   Clear
11:55 AM 81.5 °F 81.8 °F 59.4 °F 47% 30.19 in 10.0 mi Calm Calm - N/A   Clear
12:15 PM 82.4 °F 82.7 °F 60.1 °F 47% 30.18 in 10.0 mi ESE 4.6 mph - N/A   Clear
12:35 PM 82.4 °F 82.3 °F 58.5 °F 44% 30.18 in 10.0 mi Calm Calm - N/A   Clear
12:55 PM 83.1 °F 83.0 °F 59.2 °F 44% 30.18 in 10.0 mi SE 5.8 mph - N/A   Clear
1:15 PM 83.3 °F 82.8 °F 57.6 °F 41% 30.17 in 10.0 mi Calm Calm - N/A   Clear
1:35 PM 84.6 °F 84.0 °F 58.6 °F 41% 30.16 in 10.0 mi SE 5.8 mph - N/A   Scattered Clouds
1:55 PM 82.8 °F 82.4 °F 57.4 °F 42% 30.16 in 10.0 mi Calm Calm - N/A   Scattered Clouds
2:15 PM 83.1 °F 83.2 °F 59.7 °F 45% 30.16 in 10.0 mi Calm Calm - N/A   Mostly Cloudy
2:35 PM 83.3 °F 82.8 °F 57.4 °F 41% 30.15 in 10.0 mi SSE 3.5 mph - N/A   Mostly Cloudy
2:55 PM 84.4 °F 83.8 °F 58.1 °F 41% 30.14 in 10.0 mi Calm Calm - N/A   Mostly Cloudy
3:15 PM 84.7 °F 83.9 °F 57.0 °F 39% 30.14 in 10.0 mi Calm Calm - N/A   Scattered Clouds
3:35 PM 84.7 °F 83.7 °F 56.5 °F 38% 30.13 in 10.0 mi SE 5.8 mph - N/A   Scattered Clouds
3:55 PM 85.3 °F 83.9 °F 55.6 °F 36% 30.12 in 10.0 mi Calm Calm - N/A   Scattered Clouds
4:15 PM 85.8 °F 84.7 °F 57.0 °F 37% 30.12 in 10.0 mi South 4.6 mph - N/A   Scattered Clouds
4:35 PM 83.8 °F 83.4 °F 58.3 °F 42% 30.11 in 10.0 mi SSE 3.5 mph - N/A   Scattered Clouds
4:55 PM 85.8 °F 84.5 °F 55.9 °F 36% 30.11 in 10.0 mi Calm Calm - N/A   Clear
5:15 PM 85.3 °F 84.4 °F 57.4 °F 39% 30.11 in 10.0 mi SSW 4.6 mph - N/A   Scattered Clouds
5:35 PM 85.5 °F 85.0 °F 59.5 °F 41% 30.11 in 10.0 mi ESE 5.8 mph - N/A   Mostly Cloudy
5:55 PM 83.8 °F 83.6 °F 59.0 °F 43% 30.11 in 10.0 mi SE 3.5 mph - N/A   Scattered Clouds
6:15 PM 85.1 °F 84.6 °F 59.2 °F 41% 30.10 in 10.0 mi Calm Calm - N/A   Scattered Clouds
6:35 PM 84.9 °F 84.8 °F 60.1 °F 43% 30.10 in 10.0 mi SE 3.5 mph - N/A   Scattered Clouds
6:55 PM 82.4 °F 82.7 °F 60.3 °F 47% 30.10 in 10.0 mi SE 3.5 mph - N/A   Scattered Clouds
7:15 PM 82.0 °F 82.5 °F 60.6 °F 48% 30.10 in 10.0 mi Calm Calm - N/A   Scattered Clouds
7:35 PM 82.0 °F 82.7 °F 61.2 °F 49% 30.10 in 10.0 mi SE 3.5 mph - N/A   Scattered Clouds
7:55 PM 81.5 °F 82.7 °F 62.6 °F 53% 30.10 in 10.0 mi Calm Calm - N/A   Mostly Cloudy
8:15 PM 80.8 °F 81.4 °F 59.9 °F 49% 30.11 in 10.0 mi SE 9.2 mph - N/A   Mostly Cloudy
8:35 PM 79.3 °F - 60.3 °F 52% 30.11 in 10.0 mi SSE 4.6 mph - N/A   Mostly Cloudy
8:55 PM 77.9 °F - 61.0 °F 56% 30.11 in 10.0 mi SSE 3.5 mph - N/A   Mostly Cloudy
9:15 PM 75.6 °F - 61.9 °F 62% 30.11 in 10.0 mi SE 3.5 mph - N/A   Scattered Clouds
9:35 PM 73.8 °F - 62.8 °F 68% 30.12 in 10.0 mi SE 3.5 mph - N/A   Scattered Clouds
9:55 PM 73.6 °F - 63.0 °F 69% 30.13 in 10.0 mi SSE 4.6 mph - N/A   Mostly Cloudy
10:15 PM 75.4 °F - 62.6 °F 64% 30.13 in 10.0 mi SE 3.5 mph - N/A   Mostly Cloudy
10:35 PM 73.9 °F - 63.0 °F 68% 30.13 in 10.0 mi Calm Calm - N/A   Mostly Cloudy
10:55 PM 70.5 °F - 64.0 °F 80% 30.13 in 10.0 mi Calm Calm - N/A   Scattered Clouds
11:15 PM 69.4 °F - 63.9 °F 82% 30.14 in 10.0 mi Calm Calm - N/A   Clear
11:35 PM 68.2 °F - 63.3 °F 84% 30.14 in 10.0 mi Calm Calm - N/A   Clear
11:55 PM 68.0 °F - 63.0 °F 84% 30.14 in 10.0 mi Calm Calm - N/A   Clear